This is the latest recevied weather packets stored in our database for station/object IU2EBF-4. If no packets are shown the sender has not sent any weather packets the latest 10 day(s).
| Time | Temp. | Humidity | Pressure | Rain* | Wind** | Luminosity | Snow |
|---|---|---|---|---|---|---|---|
| 1777621805 | 10.56° C | 48% | 1049 hPa | - | - | - | - |
| 1777621080 | 12.78° C | 47% | 1048 hPa | - | - | - | - |
| 1777620355 | 14.44° C | 49% | 1048 hPa | - | - | - | - |
| 1777619630 | 13.89° C | 49% | 1048 hPa | - | - | - | - |
| 1777618906 | 12.22° C | 52% | 1048 hPa | - | - | - | - |
| 1777618181 | 10° C | 54% | 1048 hPa | - | - | - | - |
| 1777617456 | 7.22° C | 55% | 1048 hPa | - | - | - | - |
| 1777616731 | 5° C | 56% | 1048 hPa | - | - | - | - |
| 1777616006 | 4.44° C | 57% | 1048 hPa | - | - | - | - |
| 1777615281 | 4.44° C | 57% | 1048 hPa | - | - | - | - |
| 1777614556 | 4.44° C | 57% | 1048 hPa | - | - | - | - |
| 1777613832 | 3.89° C | 59% | 1048 hPa | - | - | - | - |
| 1777613107 | 3.89° C | 59% | 1047 hPa | - | - | - | - |
| 1777612382 | 3.33° C | 59% | 1047 hPa | - | - | - | - |
| 1777611657 | 3.89° C | 58% | 1047 hPa | - | - | - | - |
| 1777610932 | 3.89° C | 56% | 1047 hPa | - | - | - | - |
| 1777610207 | 3.89° C | 56% | 1047 hPa | - | - | - | - |
| 1777609483 | 3.89° C | 57% | 1047 hPa | - | - | - | - |
| 1777608758 | 3.89° C | 56% | 1047 hPa | - | - | - | - |
| 1777608033 | 3.89° C | 56% | 1047 hPa | - | - | - | - |
| 1777607308 | 3.89° C | 56% | 1047 hPa | - | - | - | - |
| 1777606616 | 3.89° C | 56% | 1047 hPa | - | - | - | - |
| 1777606583 | 3.89° C | 56% | 1047 hPa | - | - | - | - |
| 1777605898 | 3.89° C | 57% | 1047 hPa | - | - | - | - |
| 1777605858 | 3.89° C | 57% | 1047 hPa | - | - | - | - |
* Rain since midnight (hover to see other rain measurements)
** Current wind speed in m/s (hover to see current wind gust speed)